Temperature
13 12 12 12 11 11 11 11 11 10 10 10 11 11 11 12 12 12 12 13 13 13 14 14 14 14 14 14 14 14 14 13 13 13 13 13 13 13 13 13 13 14 14
12 12 12 11 11 11 11 10 10 10 10 10 10 10 10 10 11 11 11 12 12 13 13 13 14 14 14 14 14 14 14 14 13 13 13 13 13 13 13 13 13 13 13
12 12 11 11 11 11 11 10 10 10 10 10 10 9 10 10 10 10 10 11 11 12 12 13 13 13 14 14 14 14 14 14 13 13 13 12 12 12 12 12 12 12 12
12 11 11 11 11 11 10 10 10 10 10 10 9 9 9 9 9 10 10 10 11 11 12 12 13 13 13 14 13 14 14 14 13 13 13 12 12 12 12 12 11 11 11
12 11 11 11 11 10 10 10 10 10 10 9 9 9 9 9 9 9 9 10 10 10 11 12 12 13 13 13 13 13 13 13 13 13 12 12 12 11 11 11 11 11 11
11 11 11 11 10 10 10 10 10 10 9 9 9 9 9 9 9 9 9 9 10 10 11 11 12 12 13 13 13 13 13 13 13 13 12 12 12 12 11 11 11 11 10
11 11 11 10 10 10 10 10 9 9 9 9 9 9 9 9 9 9 9 9 9 10 10 11 11 12 12 12 13 13 13 13 13 13 13 12 12 12 11 11 11 11 11
10 10 10 10 10 9 9 9 9 9 9 9 8 8 8 8 8 8 8 9 9 9 10 10 11 11 12 12 12 12 12 12 13 13 13 13 12 12 12 12 11 11 10
9 9 9 9 9 9 9 9 9 8 8 8 8 8 8 8 8 8 8 8 8 9 9 10 10 11 11 11 12 12 12 12 12 12 12 12 12 12 11 11 11 10 10
8 8 8 8 8 8 8 8 8 8 8 8 8 8 8 8 8 8 8 8 8 9 9 10 10 10 11 11 11 12 12 12 12 11 11 11 11 11 11 11 11 11 10
7 6 6 7 7 7 7 7 7 7 7 7 7 8 8 8 8 8 8 8 8 8 9 9 10 10 10 11 11 12 12 12 11 11 11 11 11 11 11 11 11 11 11
5 5 5 6 6 6 6 6 6 6 7 7 7 7 7 8 8 8 8 8 8 8 8 9 9 10 10 10 11 11 11 11 11 11 11 11 11 11 11 11 11 11 11
5 5 5 5 5 5 5 5 6 6 6 6 7 7 7 7 8 8 8 8 8 8 8 8 9 9 10 10 10 10 11 11 11 11 11 11 11 11 11 11 11 11 11
4 4 4 4 4 5 5 5 5 6 6 6 6 7 7 7 7 8 8 8 8 8 8 8 8 9 9 10 10 10 10 11 11 11 11 10 11 11 11 11 11 11 11
4 4 4 4 4 4 5 5 5 5 6 6 6 6 7 7 7 7 8 8 8 7 7 7 8 8 9 9 9 9 10 10 10 10 10 10 10 10 10 11 11 11 11
4 4 4 4 4 4 5 5 5 5 5 6 6 6 7 7 7 7 7 7 7 7 7 7 7 8 8 9 9 9 9 10 10 10 10 10 10 10 10 10 10 11 11
4 4 4 4 4 4 5 5 5 5 5 6 6 6 6 7 7 7 7 7 7 7 7 7 8 8 8 9 9 9 9 10 10 10 10 10 10 10 10 10 10 10 10
5 5 4 5 5 5 5 5 5 5 6 6 6 6 6 6 6 6 7 6 6 6 7 7 8 8 8 9 9 9 10 10 10 10 10 10 10 10 10 10 10 10 10
5 5 5 5 5 5 5 5 5 5 6 6 6 6 6 6 6 6 6 6 6 7 7 7 8 8 9 9 9 10 10 10 10 10 10 10 10 10 10 10 10 10 10
5 5 5 5 5 5 5 5 5 6 6 6 6 6 6 6 6 6 6 6 6 7 7 8 8 8 9 9 10 10 10 10 10 10 10 10 10 10 10 10 10 10 10
6 6 6 6 6 6 6 6 6 6 6 6 6 6 6 6 6 6 6 7 7 7 7 8 9 9 9 10 10 10 10 10 10 10 10 10 10 10 10 10 10 10 10
6 6 6 6 6 6 6 6 6 6 6 6 6 6 6 6 6 7 7 7 7 8 8 9 9 9 10 10 10 10 10 10 10 10 10 10 10 11 11 11 11 11 10
6 6 6 6 6 6 6 6 6 6 6 7 7 7 7 7 7 7 8 8 8 9 9 9 10 10 10 11 11 11 11 11 11 11 11 11 11 11 11 11 11 11 11
6 6 6 6 6 6 6 6 7 7 7 7 7 7 7 7 7 8 8 8 9 9 10 10 10 11 11 11 11 11 11 11 11 11 11 11 11 11 11 11 11 11 11
7 7 7 6 6 7 7 7 7 7 7 7 7 7 7 8 8 8 9 9 10 10 10 11 11 11 11 11 11 11 11 11 11 11 11 11 11 11 11 11 11 11 11
7 7 7 7 7 7 7 7 7 7 7 7 8 8 8 8 9 9 9 10 10 11 11 11 11 12 11 11 11 11 11 11 11 11 11 11 11 11 11 11 11 11 11
Wind_Speed
7 7 7 7 7 7 6 7 7 7 7 7 7 7 7 8 8 7 7 7 8 8 8 8 9 7 6 6 5 6 6 6 5 3 2 3 4 7 7 7 9 8 10
9 8 9 9 8 8 9 10 9 9 8 8 7 8 8 8 7 7 8 8 8 9 9 8 9 7 7 6 5 6 6 6 5 4 3 3 4 8 8 8 6 8 9
9 9 10 10 10 11 11 11 10 10 9 9 8 8 9 8 8 8 8 9 9 9 9 9 9 8 8 6 6 6 5 5 5 6 5 3 4 7 8 8 9 7 9
9 10 10 11 12 12 11 11 11 10 10 10 9 9 9 9 8 8 8 8 9 9 8 9 9 9 9 8 6 6 5 6 6 8 7 6 6 6 8 8 7 5 6
10 10 11 12 11 11 11 11 11 10 11 10 9 9 9 8 8 8 7 8 8 8 8 8 9 11 11 9 7 7 7 7 7 8 8 7 8 9 8 6 9 8 6
11 11 11 11 10 11 11 11 10 10 10 9 9 9 9 9 11 12 10 8 8 8 9 8 8 9 11 12 12 12 12 11 10 9 7 10 10 9 8 10 10 8 5
11 11 10 10 10 11 11 9 9 10 9 9 9 9 9 11 14 15 14 9 8 8 8 8 8 7 8 6 8 10 11 13 13 11 12 11 11 12 11 11 9 6 5
10 10 10 10 10 10 9 9 10 8 8 8 9 9 9 11 14 14 14 9 8 8 9 9 9 7 8 8 8 7 6 7 9 9 10 10 11 12 11 11 10 8 7
10 9 9 9 9 8 8 9 9 7 8 8 8 9 9 10 13 14 12 6 7 8 8 9 9 8 11 12 10 9 8 6 8 11 12 12 15 15 13 11 10 11 9
10 9 9 8 8 9 9 9 8 8 9 8 9 9 10 10 12 14 12 5 6 7 6 7 10 11 12 14 12 12 12 9 10 12 12 12 12 13 14 11 11 12 9
10 10 10 9 9 10 10 9 9 8 8 8 9 9 9 10 11 14 12 6 6 6 6 6 6 11 13 14 12 11 14 13 12 12 11 10 8 8 7 7 8 12 9
11 11 11 10 11 11 8 8 8 8 8 8 8 8 7 8 9 10 12 11 9 6 6 5 6 12 13 13 11 13 17 15 11 11 10 9 8 7 6 7 7 6 5
13 13 12 12 10 10 9 9 8 7 7 7 6 7 6 6 6 10 10 10 10 7 5 7 8 11 12 11 14 17 15 12 11 11 10 8 6 6 7 8 8 8 7
14 13 12 11 11 10 8 8 7 7 7 6 6 6 6 4 4 4 4 4 5 5 4 6 9 11 10 11 13 11 9 9 11 10 9 7 6 6 7 8 8 8 7
13 12 11 10 10 9 8 7 8 8 8 8 6 6 5 5 6 8 6 4 4 4 5 5 5 7 8 8 8 8 8 9 9 8 9 9 8 8 6 5 6 6 6
12 10 8 7 7 6 6 7 9 9 10 13 11 8 6 7 7 8 8 7 7 9 6 6 7 8 10 10 10 9 8 9 9 10 9 9 8 8 6 5 5 7 8
11 10 7 6 6 5 5 5 4 4 4 6 8 10 8 8 8 8 8 8 8 9 5 5 7 8 9 9 9 9 8 9 9 10 10 9 8 8 7 7 6 6 6
10 10 8 5 5 5 4 4 3 3 1 1 1 5 8 9 8 8 9 8 5 5 5 5 6 7 8 9 9 8 9 9 9 9 9 8 8 7 7 7 7 7 6
8 6 5 4 4 4 3 3 3 3 3 3 3 3 6 7 6 6 7 4 5 5 5 5 5 6 7 7 8 8 9 8 9 9 8 8 8 7 7 7 7 10 6
7 9 6 3 2 2 2 2 2 3 3 4 5 5 5 4 4 3 3 3 4 4 4 4 4 5 6 7 8 8 8 8 9 8 7 8 7 8 8 9 8 8 6
7 6 7 3 1 1 1 2 3 3 3 5 5 7 9 5 5 5 4 3 3 4 4 4 4 5 6 7 8 9 9 8 8 8 8 8 8 7 7 8 8 8 7
6 4 3 2 1 0 1 2 2 3 4 5 5 5 9 5 5 5 5 4 4 4 4 4 4 5 7 8 8 9 9 8 8 8 8 8 7 7 7 7 7 7 8
6 5 3 2 1 1 1 2 3 4 4 5 6 6 5 4 5 5 4 3 3 3 3 4 4 4 6 7 8 9 10 9 9 10 9 8 8 7 7 8 9 8 8
5 4 3 2 1 2 2 3 3 4 5 6 6 5 5 4 5 5 4 3 3 3 3 4 4 7 10 8 7 7 8 8 9 9 11 10 9 7 7 7 8 9 8
5 2 1 1 2 3 4 4 4 5 5 5 5 5 5 4 4 4 3 3 4 4 5 5 4 7 11 12 10 8 12 14 12 10 8 8 9 9 8 8 7 6 6
5 3 1 2 2 3 3 4 4 4 5 5 5 5 5 4 4 4 3 3 4 3 4 4 6 8 10 10 11 13 14 14 14 14 9 8 8 8 8 6 8 7 7
Wind_Direction
232 236 243 250 255 261 266 271 274 277 283 287 291 294 297 298 297 295 286 277 263 255 247 239 240 238 241 238 228 220 214 205 220 215 181 148 132 126 114 103 96 88 85
238 238 241 245 247 249 254 258 260 264 267 268 272 278 283 286 288 289 287 284 273 263 253 243 243 243 240 234 225 222 215 199 193 193 168 153 137 137 125 113 102 93 88
242 240 243 246 245 245 248 252 253 255 259 262 261 265 270 273 276 278 276 277 271 263 254 245 243 237 240 232 224 221 212 201 183 174 167 148 135 136 125 112 104 99 94
242 240 242 244 243 243 245 247 248 248 250 254 254 254 257 261 265 270 273 276 271 264 256 246 240 232 230 223 223 216 199 184 172 166 161 153 144 138 132 128 117 102 98
245 244 244 244 243 243 244 244 244 243 246 245 248 252 252 254 257 259 266 276 274 270 264 251 241 234 225 218 216 203 185 179 173 167 164 157 154 153 148 140 128 116 90
245 246 246 244 244 243 243 244 242 241 241 240 241 244 249 257 260 264 263 266 267 263 262 258 246 235 226 219 218 204 188 181 178 172 170 166 162 152 142 142 139 137 122
250 250 248 245 243 242 246 244 238 239 238 239 240 239 243 250 257 262 264 261 256 256 252 248 249 230 215 209 206 195 193 188 180 172 168 166 160 158 150 148 150 137 125
258 257 254 249 247 246 243 240 240 238 238 239 240 240 242 251 254 257 262 259 251 251 245 238 235 223 211 193 177 170 171 175 173 168 164 158 155 155 153 149 144 118 106
268 264 261 257 254 252 249 246 244 239 238 238 240 239 240 250 254 256 257 251 249 254 248 237 225 215 206 185 168 160 152 147 142 140 140 142 147 149 146 140 140 138 137
280 275 268 260 254 252 249 249 246 238 238 241 245 241 237 245 252 252 249 234 245 254 251 235 220 209 196 182 171 162 159 153 141 131 128 130 138 145 147 153 154 151 145
283 281 275 267 260 256 252 250 246 242 242 242 246 248 242 244 251 249 244 225 231 241 245 233 214 196 188 181 174 166 158 147 140 134 130 127 125 131 139 144 150 154 153
283 280 276 270 269 274 256 251 244 238 240 244 246 253 251 248 245 248 243 228 219 226 236 226 201 185 176 171 166 150 142 136 134 132 131 132 134 137 136 135 133 131 139
286 282 278 272 265 262 256 252 248 239 236 238 235 242 250 247 247 245 237 226 221 220 224 211 183 175 165 156 151 146 143 140 139 137 138 138 134 132 122 114 107 102 84
285 282 278 272 266 258 253 247 242 235 231 231 231 234 238 238 233 219 208 206 209 210 203 181 165 166 157 142 143 145 141 140 141 138 134 127 117 116 122 125 125 119 99
287 282 279 272 265 260 252 245 239 233 224 220 224 217 211 223 226 206 189 195 191 179 159 154 157 157 151 143 142 137 132 133 129 129 130 129 126 122 119 115 120 112 113
290 285 280 271 264 258 255 263 251 240 240 233 226 214 211 207 198 191 186 178 167 154 153 158 160 161 155 150 147 137 134 137 136 134 135 136 136 133 124 111 113 122 125
292 289 284 272 263 259 251 249 263 271 255 244 227 211 190 169 170 174 170 158 153 148 150 153 154 157 151 148 145 139 138 142 140 142 144 142 138 134 131 128 123 122 125
299 294 291 270 259 253 248 239 228 223 210 101 102 170 162 158 163 165 153 140 145 151 146 149 146 146 145 143 141 135 136 140 141 144 144 144 143 142 141 142 142 139 137
309 302 291 275 257 242 236 226 214 200 173 140 110 96 125 130 134 149 150 148 147 143 139 140 135 139 141 139 139 138 140 145 146 145 147 150 149 144 147 153 153 152 141
316 322 324 297 275 241 217 204 188 171 158 148 149 150 145 131 134 151 162 147 138 134 133 142 144 145 145 144 142 141 142 145 146 145 150 152 151 150 153 155 156 159 161
324 326 338 336 318 261 197 174 167 161 156 152 158 169 166 158 159 162 167 166 156 155 155 156 156 154 149 145 145 147 148 151 153 151 152 153 152 151 152 153 157 158 158
326 325 324 325 326 305 149 148 150 150 147 145 143 154 166 153 156 164 170 173 175 175 164 159 162 163 162 158 153 150 152 153 154 152 150 152 153 152 149 147 150 154 158
325 327 330 325 337 104 126 137 139 134 133 137 140 144 161 163 159 163 175 180 177 175 169 163 163 164 159 156 155 157 160 163 161 156 151 150 152 152 150 152 156 156 164
322 330 349 7 40 78 101 118 128 131 132 133 137 144 156 157 154 161 173 176 168 168 168 161 164 161 154 152 154 155 156 155 153 154 151 152 153 153 153 157 162 170 175
325 335 26 59 66 75 89 100 108 116 122 127 133 138 144 144 145 153 164 170 169 170 166 157 153 152 152 155 157 154 154 153 156 154 148 149 155 158 161 165 167 168 173
345 358 65 117 105 95 99 105 111 118 121 126 133 138 141 145 152 160 158 150 146 153 154 150 152 149 150 154 156 154 158 162 162 160 155 150 155 162 164 169 175 179 181
Height
1483 1481 1478 1476 1474 1472 1470 1467 1465 1463 1461 1460 1458 1457 1456 1455 1454 1453 1453 1453 1453 1453 1454 1454 1453 1453 1452 1452 1452 1452 1452 1453 1454 1455 1457 1458 1459 1460 1461 1463 1464 1464 1465
1477 1475 1472 1470 1468 1466 1464 1462 1460 1458 1456 1454 1453 1451 1450 1448 1447 1446 1446 1446 1446 1446 1446 1447 1447 1447 1446 1446 1446 1446 1447 1448 1449 1451 1453 1455 1456 1458 1460 1461 1463 1464 1464
1470 1468 1466 1464 1461 1459 1457 1456 1454 1452 1450 1449 1447 1445 1444 1442 1441 1440 1439 1438 1438 1438 1439 1439 1440 1440 1439 1439 1440 1441 1442 1443 1444 1446 1449 1451 1453 1456 1458 1460 1462 1463 1464
1462 1460 1457 1456 1454 1452 1450 1448 1447 1445 1444 1442 1441 1439 1438 1436 1435 1434 1433 1431 1431 1431 1431 1432 1432 1433 1433 1433 1434 1435 1436 1437 1439 1441 1445 1448 1450 1453 1456 1458 1461 1463 1465
1454 1451 1449 1447 1445 1443 1442 1440 1439 1438 1436 1435 1433 1432 1431 1430 1428 1427 1426 1425 1424 1423 1423 1424 1424 1425 1426 1427 1428 1429 1431 1432 1434 1436 1440 1443 1447 1450 1454 1457 1460 1463 1466
1444 1442 1440 1438 1436 1435 1433 1432 1430 1429 1428 1427 1426 1425 1423 1422 1421 1420 1419 1417 1416 1416 1416 1416 1417 1418 1419 1420 1422 1423 1425 1427 1428 1431 1435 1438 1442 1447 1451 1455 1458 1461 1465
1435 1433 1431 1429 1427 1425 1424 1423 1422 1421 1420 1419 1418 1417 1415 1414 1414 1412 1411 1410 1409 1408 1408 1409 1409 1410 1412 1414 1416 1418 1420 1422 1425 1427 1430 1434 1438 1443 1448 1453 1458 1461 1463
1425 1423 1421 1419 1417 1416 1415 1414 1413 1412 1411 1410 1409 1408 1407 1406 1405 1404 1403 1402 1401 1401 1401 1401 1402 1404 1406 1408 1410 1413 1415 1418 1421 1425 1428 1432 1437 1442 1447 1452 1457 1461 1466
1416 1413 1411 1409 1407 1406 1405 1404 1404 1403 1402 1401 1401 1400 1399 1398 1398 1397 1396 1395 1394 1394 1394 1394 1396 1397 1400 1402 1405 1408 1412 1415 1419 1423 1427 1432 1437 1442 1447 1452 1456 1460 1464
1406 1403 1401 1399 1397 1396 1395 1394 1394 1393 1393 1393 1392 1391 1391 1390 1390 1389 1389 1388 1387 1387 1387 1387 1389 1391 1394 1397 1401 1404 1408 1411 1415 1420 1426 1431 1437 1442 1447 1451 1455 1459 1463
1395 1393 1390 1388 1387 1385 1384 1384 1384 1384 1384 1383 1383 1383 1383 1382 1382 1382 1382 1381 1381 1381 1381 1381 1383 1386 1389 1393 1397 1401 1405 1409 1414 1418 1424 1430 1435 1441 1446 1451 1456 1459 1462
1384 1381 1378 1377 1375 1375 1374 1374 1374 1374 1374 1374 1375 1375 1375 1375 1375 1375 1375 1375 1375 1375 1375 1376 1378 1381 1385 1389 1394 1399 1403 1408 1413 1418 1423 1429 1434 1440 1445 1451 1456 1460 1464
1373 1370 1367 1366 1364 1364 1364 1363 1364 1365 1365 1366 1367 1367 1368 1369 1369 1369 1369 1369 1369 1369 1370 1371 1373 1377 1382 1387 1392 1397 1402 1406 1411 1417 1423 1429 1435 1440 1445 1450 1455 1460 1465
1363 1360 1358 1356 1354 1354 1354 1354 1355 1356 1357 1358 1359 1361 1362 1363 1363 1364 1364 1364 1364 1364 1365 1367 1370 1374 1380 1385 1390 1395 1401 1406 1411 1416 1423 1429 1435 1440 1445 1450 1454 1459 1464
1355 1352 1349 1347 1346 1345 1345 1346 1347 1348 1350 1352 1353 1355 1357 1358 1359 1360 1360 1360 1360 1360 1362 1364 1368 1372 1377 1383 1389 1394 1400 1406 1412 1418 1423 1429 1435 1440 1446 1450 1455 1459 1463
1348 1345 1342 1340 1339 1339 1339 1339 1340 1342 1344 1346 1348 1350 1352 1354 1355 1356 1356 1356 1357 1358 1360 1362 1366 1371 1376 1382 1388 1394 1401 1407 1413 1419 1425 1430 1435 1441 1445 1450 1455 1459 1463
1343 1339 1337 1335 1334 1334 1334 1335 1336 1338 1340 1342 1344 1347 1349 1351 1352 1353 1353 1354 1355 1357 1359 1362 1366 1371 1377 1383 1389 1395 1402 1408 1415 1420 1426 1431 1436 1441 1446 1450 1455 1459 1463
1339 1336 1334 1332 1331 1331 1331 1332 1334 1335 1337 1339 1342 1345 1347 1349 1350 1351 1351 1353 1354 1357 1360 1363 1368 1373 1379 1385 1391 1397 1404 1410 1416 1422 1427 1432 1437 1442 1446 1451 1455 1459 1462
1337 1334 1331 1330 1329 1329 1330 1331 1332 1334 1336 1339 1341 1343 1346 1347 1349 1350 1351 1353 1354 1357 1361 1365 1371 1376 1382 1388 1394 1400 1406 1412 1418 1423 1428 1434 1438 1443 1447 1452 1455 1459 1463
1337 1334 1331 1330 1329 1329 1329 1330 1332 1334 1336 1338 1340 1343 1345 1347 1349 1350 1352 1354 1357 1360 1364 1369 1375 1380 1386 1392 1397 1403 1409 1414 1420 1425 1430 1435 1439 1444 1448 1452 1455 1459 1463
1338 1335 1333 1331 1330 1330 1330 1331 1333 1335 1337 1339 1341 1343 1346 1348 1350 1352 1355 1357 1360 1364 1368 1374 1379 1384 1390 1395 1400 1406 1411 1416 1421 1426 1431 1435 1440 1444 1448 1452 1456 1459 1462
1339 1336 1334 1332 1331 1331 1331 1333 1334 1336 1337 1339 1342 1344 1346 1349 1352 1354 1357 1360 1364 1368 1373 1378 1382 1387 1392 1397 1402 1407 1412 1417 1422 1427 1431 1436 1440 1444 1448 1452 1455 1459 1462
1339 1336 1335 1333 1333 1333 1333 1334 1335 1337 1339 1341 1343 1345 1348 1351 1354 1357 1361 1364 1368 1372 1376 1381 1385 1390 1395 1400 1405 1409 1414 1418 1423 1427 1432 1436 1440 1444 1447 1451 1454 1458 1461
1339 1337 1336 1335 1335 1335 1335 1335 1337 1338 1340 1343 1346 1348 1351 1354 1358 1362 1365 1368 1371 1376 1380 1384 1388 1393 1397 1402 1407 1411 1415 1420 1424 1428 1432 1436 1440 1444 1447 1451 1454 1457 1460
1339 1337 1337 1336 1337 1337 1337 1338 1339 1341 1343 1346 1349 1352 1355 1358 1362 1366 1369 1372 1375 1379 1384 1388 1392 1396 1400 1404 1408 1413 1417 1421 1425 1429 1433 1436 1440 1443 1447 1450 1453 1455 1458
1341 1339 1338 1338 1339 1339 1340 1341 1343 1345 1347 1350 1352 1356 1359 1363 1366 1369 1373 1376 1380 1384 1387 1391 1395 1399 1402 1407 1410 1414 1418 1422 1425 1429 1433 1436 1439 1443 1446 1449 1451 1454 1456